www.pogodaiklimat.ru

Погода и климат >> Архив погоды >> Италия >> Конкордия-Саджиттария


ПОГОДА в Конкордия-Саджиттарии

  • Прогноз погоды в Конкордия-Саджиттарии
  • Монитор погоды в Конкордия-Саджиттарии

АРХИВ ПОГОДЫ в Конкордия-Саджиттарии

Время (UTC), дата Ветер
(напр.,м/с)
 
Видим.   Явления Облачность Т
(С)
Тd
(С)
f
(%)
Тe
(С)
Тes
(С)
Комфортность P
(гПа)
Po
(гПа)
Тmin
(С)
Tmax
(С)
R
(мм)
R24
(мм)
S
(см)
01 17.03 С 2 н/о н/о +8.2 +6.6 90 +6 +6 1020.7 1015.6
02 17.03 С 1 н/о н/о +7.2 +5.6 90 +6 +6 1020.4 1015.3
03 17.03 С 1 н/о н/о +7.6 +6.0 90 +7 +7 1020.3 1015.2
04 17.03 СЗ 2 н/о н/о +8.3 +6.7 90 +7 +7 1020.4 1015.3 +6.6
05 17.03 С 2 н/о н/о +8.8 +7.2 90 +7 +7 1020.2 1015.1
06 17.03 С 2 н/о н/о +9.3 +7.7 90 +7 +7 1020.5 1015.5 304
07 17.03 СВ 4 н/о н/о +11.8 +10.2 90 +10 +10 1020.7 1015.7
08 17.03 В 4 н/о н/о +11.8 +10.2 90 +10 +10 1021.1 1016.1
09 17.03 В 4 н/о н/о +12.8 +11.2 90 +11 +11 1021.0 1016.0
10 17.03 ЮВ 4 н/о н/о +12.0 +10.4 90 +10 +10 1021.1 1016.1
11 17.03 В 2 н/о н/о +11.9 +10.3 90 +11 +11 1020.7 1015.7
12 17.03 ЮВ 2 н/о н/о +11.9 +10.3 90 +11 +11 1020.0 1015.0
13 17.03 Ю 2 н/о н/о +12.0 +10.4 90 +11 +11 1019.1 1014.1
14 17.03 ЮВ 3 н/о н/о +11.4 +9.8 90 +10 +10 1018.5 1013.5
15 17.03 ЮВ 2 н/о н/о +11.3 +9.7 90 +10 +10 1017.8 1012.8
16 17.03 ЮВ 3 н/о н/о +11.2 +9.6 90 +10 +10 1017.4 1012.4 +13.8
17 17.03 Ю 2 н/о н/о +11.0 +9.4 90 +10 +10 1017.0 1012.0
18 17.03 штиль 0 н/о н/о +10.8 +9.2 90 +10 +10 1017.1 1012.1
19 17.03 штиль 0 н/о н/о +10.3 +8.7 90 +10 +10 1017.1 1012.1
20 17.03 штиль 0 н/о н/о +10.5 +8.9 90 +10 +10 1017.0 1012.0
21 17.03 С 1 н/о н/о +10.9 +9.3 90 +10 +10 1016.6 1011.6
00 18.03 В 3 н/о н/о +11.5 +9.9 90 +10 +10 1015.0 1010.0
01 18.03 СВ 1 н/о н/о +11.3 +9.7 90 +11 +11 1014.7 1009.7
02 18.03 штиль 0 н/о н/о +11.3 +9.7 90 +11 +11 1014.0 1009.0
03 18.03 В 2 н/о н/о +11.1 +9.5 90 +10 +10 1014.0 1009.0
04 18.03 ЮВ 3 н/о н/о +10.5 +8.9 90 +9 +9 1014.2 1009.2 +10.2
05 18.03 В 3 н/о н/о +10.1 +8.5 90 +8 +8 1014.3 1009.3
06 18.03 ЮВ 2 н/о н/о +10.5 +8.9 90 +9 +9 1014.8 1009.8 403
07 18.03 ЮВ 2 н/о н/о +10.5 +8.9 90 +9 +9 1015.4 1010.4
08 18.03 С 2 н/о н/о +10.9 +9.3 90 +9 +9 1016.9 1011.9
09 18.03 СЗ 2 н/о н/о +6.4 +4.9 90 +4 +4 1018.2 1013.1
10 18.03 С 11 н/о н/о +7.0 +5.5 90 +1 +1 1018.8 1013.7
11 18.03 СЗ 11 н/о н/о +6.5 +5.0 90 0 0 1020.4 1015.3
12 18.03 С 10 н/о н/о +5.9 +4.4 90 -0 -0 1021.3 1016.2
13 18.03 С 11 н/о н/о +6.2 +4.7 90 -0 -0 1021.5 1016.4
14 18.03 С 7 н/о н/о +6.1 +4.6 90 +1 +1 1021.7 1016.6
15 18.03 СВ 7 н/о н/о +6.5 +5.0 90 +1 +1 1021.6 1016.5
16 18.03 С 6 н/о н/о +6.8 +5.3 90 +2 +2 1021.6 1016.5 +11.0
17 18.03 С 4 н/о н/о +6.8 +5.3 90 +3 +3 1022.2 1017.1
18 18.03 С 3 н/о н/о +6.6 +4.9 89 +3 +3 1023.1 1018.0
19 18.03 С 3 н/о н/о +5.8 +4.3 90 +3 +3 1023.9 1018.8
20 18.03 СВ 1 н/о н/о +5.0 +3.5 90 +4 +4 1024.4 1019.3
21 18.03 С 1 н/о н/о +5.1 +3.6 90 +4 +4 1024.9 1019.8
00 19.03 С 2 н/о н/о +5.5 +3.8 89 +3 +3 1025.1 1020.0
01 19.03 СЗ 3 н/о н/о +5.2 +3.7 90 +2 +2 1025.1 1020.0
02 19.03 СЗ 2 н/о н/о +5.4 +3.9 90 +3 +3 1024.9 1019.8
03 19.03 С 1 н/о н/о +4.7 +3.2 90 +4 +4 1025.2 1020.1
04 19.03 С 1 н/о н/о +4.8 +3.3 90 +3 +3 1025.4 1020.3 +4.5
05 19.03 СВ 2 н/о н/о +3.9 +2.4 90 +2 +2 1026.0 1020.8
06 19.03 С 3 н/о н/о +4.9 +3.4 90 +2 +2 1026.6 1021.4 204
07 19.03 С 5 н/о н/о +7.3 +2.7 73 +4 +4 1027.2 1022.1
08 19.03 СВ 6 н/о н/о +7.9 +2.9 71 +4 +4 1027.7 1022.6
09 19.03 СВ 7 н/о н/о +9.0 +3.8 70 +5 +5 1028.3 1023.2
10 19.03 СВ 4 н/о н/о +10.1 +4.2 67 +8 +8 1028.5 1023.4
11 19.03 В 6 н/о н/о +10.9 +4.5 65 +8 +8 1028.6 1023.6
12 19.03 СВ 6 н/о н/о +10.6 +4.0 64 +8 +8 1028.5 1023.4
13 19.03 СВ 7 н/о н/о +11.3 +3.3 58 +8 +8 1028.1 1023.1
14 19.03 В 6 н/о н/о +12.3 +2.4 51 +10 +10 1027.9 1022.9
15 19.03 В 5 н/о н/о +11.8 +3.7 58 +10 +10 1028.0 1023.0
16 19.03 СВ 5 н/о н/о +11.4 +2.6 55 +9 +9 1028.3 1023.3 +12.9
17 19.03 В 6 н/о н/о +10.1 +1.9 57 +7 +7 1029.0 1023.9
18 19.03 СВ 4 н/о н/о +8.0 +2.0 66 +5 +5 1029.8 1024.7
19 19.03 СВ 3 н/о н/о +7.1 +1.9 69 +4 +4 1030.6 1025.5
20 19.03 СВ 5 н/о н/о +6.6 +1.9 72 +3 +3 1031.2 1026.1
21 19.03 С 3 н/о н/о +6.0 +1.7 74 +3 +3 1032.1 1026.9
00 20.03 С 3 н/о н/о +4.9 +2.0 81 +2 +2 1033.3 1028.1
01 20.03 СЗ 2 н/о н/о +4.0 +1.5 84 +1 +1 1033.7 1028.5
02 20.03 С 3 н/о н/о +3.1 +1.0 86 -1 -1 1033.7 1028.5
03 20.03 С 4 н/о н/о +3.2 +0.9 85 -1 -1 1033.8 1028.6
04 20.03 С 4 н/о н/о +3.1 +0.3 82 -1 -1 1034.1 1028.9 +2.8
05 20.03 С 3 н/о н/о +3.4 +0.2 80 -1 -1 1034.5 1029.3
06 20.03 С 3 н/о н/о +3.3 +0.1 80 -0 -0 1035.3 1030.1 605
07 20.03 С 2 н/о н/о +5.6 +1.8 77 +3 +3 1035.8 1030.6
08 20.03 СВ 3 н/о н/о +9.2 +3.5 67 +7 +7 1036.3 1031.2
09 20.03 СВ 6 н/о н/о +10.9 +4.1 63 +8 +8 1036.5 1031.4
10 20.03 СВ 8 н/о н/о +12.1 +1.9 50 +9 +9 1036.6 1031.5
11 20.03 СВ 5 н/о н/о +12.9 +1.5 46 +11 +11 1036.2 1031.2
12 20.03 СВ 5 н/о н/о +13.5 -0.3 39 +12 +12 1035.8 1030.8
13 20.03 СВ 5 н/о н/о +14.0 -0.6 37 +13 +13 1035.0 1030.0
14 20.03 СВ 4 н/о н/о +14.0 -1.3 35 +13 +13 1034.6 1029.6
15 20.03 СВ 5 н/о н/о +14.1 -1.2 35 +13 +13 1034.5 1029.5
16 20.03 СВ 6 н/о н/о +13.5 -1.4 36 +12 +12 1034.5 1029.5 +14.5
17 20.03 В 8 н/о н/о +11.9 -1.1 40 +9 +9 1035.0 1029.9
18 20.03 СВ 4 н/о н/о +9.8 0.0 50 +7 +7 1035.6 1030.5
19 20.03 СВ 5 н/о н/о +8.5 -0.6 53 +6 +6 1036.0 1030.9
20 20.03 СВ 5 н/о н/о +8.1 -0.5 55 +5 +5 1036.6 1031.5
21 20.03 СВ 5 н/о н/о +8.0 -1.1 53 +5 +5 1037.3 1032.1
00 21.03 С 3 н/о н/о +6.1 -1.2 59 +3 +3 1038.0 1032.8
01 21.03 С 5 н/о н/о +5.5 -1.1 62 +2 +2 1037.7 1032.5
02 21.03 С 4 н/о н/о +5.0 -1.3 64 +2 +2 1037.3 1032.1
03 21.03 С 4 н/о н/о +4.7 -1.2 66 +1 +1 1037.1 1031.9
04 21.03 С 4 н/о н/о +4.8 -1.7 63 +1 +1 1037.2 1032.0 +3.9
05 21.03 С 2 н/о н/о +4.3 -1.8 64 +2 +2 1037.4 1032.2
06 21.03 С 3 н/о н/о +4.8 -1.1 66 +2 +2 1037.8 1032.6 105
07 21.03 С 4 н/о н/о +8.3 +1.6 63 +5 +5 1038.0 1032.9
08 21.03 С 6 н/о н/о +10.4 +1.4 54 +7 +7 1038.2 1033.1
09 21.03 СВ 6 н/о н/о +12.3 +0.9 46 +10 +10 1038.3 1033.2
10 21.03 СВ 4 н/о н/о +14.0 +0.8 41 +13 +13 1038.1 1033.1
11 21.03 СВ 5 н/о н/о +14.8 -0.6 35 +14 +14 1037.6 1032.6
12 21.03 С 5 н/о н/о +15.6 +0.9 37 +15 +15 1037.0 1032.0
13 21.03 СВ 3 н/о н/о +16.3 -0.1 33 +16 +16 1036.1 1031.1
14 21.03 В 3 н/о н/о +17.2 +1.5 35 +17 +17 1035.3 1030.3
15 21.03 СВ 3 н/о н/о +17.0 +0.5 33 +17 +17 1034.7 1029.7
17 21.03 В 1 н/о н/о +15.2 +1.2 39 +16 +16 1034.6 1029.6
18 21.03 штиль 0 н/о н/о +11.1 +0.1 47 +11 +11 1035.1 1030.0
19 21.03 В 3 н/о н/о +11.6 +1.1 48 +11 +11 1035.7 1030.6
20 21.03 СВ 2 н/о н/о +9.4 +0.7 55 +9 +9 1036.0 1030.9
21 21.03 В 3 н/о н/о +9.7 +1.5 57 +8 +8 1036.0 1030.9
22 21.03 СВ 2 н/о н/о +9.4 +0.7 55 +9 +9 1036.0 1030.9
23 21.03 В 3 н/о н/о +9.7 +1.5 57 +8 +8 1036.0 1030.9
00 22.03 СЗ 1 н/о н/о +5.9 +0.8 70 +5 +5 1036.1 1030.9
01 22.03 СЗ 2 н/о н/о +6.7 +1.3 68 +5 +5 1036.0 1030.8
02 22.03 СЗ 1 н/о н/о +5.9 +0.8 70 +5 +5 1036.1 1030.9
04 22.03 СЗ 2 н/о н/о +5.5 +0.2 69 +4 +4 1035.6 1030.4
05 22.03 СЗ 3 н/о н/о +4.1 -0.6 71 +1 +1 1035.1 1029.9
06 22.03 З 1 н/о н/о +4.2 +0.3 76 +3 +3 1035.6 1030.4 +3.9 203
07 22.03 СЗ 1 н/о н/о +6.8 +2.8 76 +6 +6 1036.0 1030.8
08 22.03 С 4 н/о н/о +10.8 +3.3 60 +9 +9 1035.9 1030.8
09 22.03 С 5 н/о н/о +14.1 +3.5 49 +13 +13 1035.6 1030.6
10 22.03 С 4 н/о н/о +10.8 +3.3 60 +9 +9 1035.9 1030.8
11 22.03 С 2 н/о н/о +17.5 -0.4 30 +18 +18 1034.8 1029.8
12 22.03 СВ 4 н/о н/о +18.5 +0.5 30 +19 +19 1034.2 1029.3
13 22.03 С 2 н/о н/о +17.5 -0.4 30 +18 +18 1034.8 1029.8
14 22.03 В 1 н/о н/о +20.3 +0.6 27 +22 +22 комфорт 1032.6 1027.7
15 22.03 С 2 н/о н/о +19.7 +0.6 28 +20 +20 1033.3 1028.4
16 22.03 штиль 0 н/о н/о +20.3 -1.0 24 +20 +20 1031.3 1026.4 +21.6
17 22.03 З 1 н/о н/о +19.1 -0.4 27 +20 +20 1031.3 1026.4
18 22.03 штиль 0 н/о н/о +20.3 -1.0 24 +20 +20 1031.3 1026.4 +21.6
19 22.03 ЮЗ 1 н/о н/о +11.9 +1.7 50 +12 +12 1032.0 1027.0
20 22.03 ЮЗ 1 н/о н/о +15.3 +1.7 40 +16 +16 1031.8 1026.8
21 22.03 С 2 н/о н/о +9.4 +2.6 62 +8 +8 1032.1 1027.0
00 23.03 С 3 н/о н/о +9.1 +2.1 62 +7 +7 1031.6 1026.5
01 23.03 С 3 н/о н/о +8.3 +2.2 65 +6 +6 1031.1 1026.0
02 23.03 С 4 н/о н/о +8.3 +2.7 68 +5 +5 1030.5 1025.4
03 23.03 С 4 н/о н/о +7.3 +1.5 67 +4 +4 1030.5 1025.4
04 23.03 С 4 н/о н/о +7.7 +1.7 66 +5 +5 1030.2 1025.1 +7.0
05 23.03 С 4 н/о н/о +7.3 +1.5 67 +4 +4 1030.5 1025.4
06 23.03 С 2 н/о н/о +7.5 +2.3 70 +6 +6 1030.6 1025.5 403
07 23.03 С 3 н/о н/о +11.9 +4.8 62 +10 +10 1030.5 1025.5
08 23.03 С 3 н/о н/о +15.2 +6.1 55 +15 +15 1030.6 1025.6
09 23.03 С 2 н/о н/о +18.7 +5.1 41 +20 +20 1030.3 1025.4
10 23.03 СЗ 1 н/о н/о +19.7 +4.5 37 +21 +21 комфорт 1030.1 1025.2
11 23.03 С 4 н/о н/о +21.4 +5.2 35 +22 +22 комфорт 1029.6 1024.7
12 23.03 С 2 н/о н/о +21.5 +4.0 32 +22 +22 комфорт 1029.2 1024.3
13 23.03 штиль 0 н/о н/о +23.2 +5.1 31 +23 +23 комфорт 1028.4 1023.6
14 23.03 СЗ 1 н/о н/о +22.9 +4.4 30 +23 +23 комфорт 1027.8 1023.0
15 23.03 З 2 н/о н/о +23.1 +3.5 28 +23 +23 комфорт 1027.2 1022.4
16 23.03 Ю 3 н/о н/о +23.2 +5.1 31 +23 +23 комфорт 1027.1 1022.3 +24.1
17 23.03 ЮЗ 4 н/о н/о +20.5 +5.6 38 +22 +22 комфорт 1027.2 1022.3
18 23.03 ЮЗ 1 н/о н/о +16.4 +5.3 48 +17 +17 1027.4 1022.4
19 23.03 Ю 1 н/о н/о +12.9 +4.3 56 +14 +14 1028.1 1023.1
20 23.03 ЮЗ 1 н/о н/о +16.4 +5.3 48 +17 +17 1027.4 1022.4
21 23.03 В 1 н/о н/о +8.9 +4.1 72 +9 +9 1028.8 1023.7
00 24.03 С 1 н/о н/о +8.3 +6.7 90 +7 +7 1028.6 1023.5

 

Местоположение метеостанции Конкордия-Саджиттария (Италия): широта 45.75 долгота 12.85 высота над уровнем моря 1 м.

В архиве по умолчанию представлена погода в Конкордия-Саджиттарии за последнюю неделю. Архивные данные за месяц целиком и за предыдущие месяцы, начиная с января 2011 года, Вы можете получить, выбрав интересующий диапазон дат из раскрывающегося списка и нажав кнопку "Ввод!".


*Определитесь, кто Вы:
робот инопланетянин человек

Внимание! Время в таблицах - всемирное. Для получения местного времени необходимо прибавить поправку, которая равна 1 ч.

Смотрите также архив погоды в соседних городах и на ближайших метеорологических станциях:

Погода на Базе ВВС Риволто (Италия) (29 км)
Погода на Базе ВВС Авиано (Италия) (36 км)
Погода в Авиано (Италия) (37 км)
Погода в Венеции (Италия) (49 км)
Погода в Ронки-деи-Леджонари (Италия) (49 км)
Погода в Венеция аэропорту (Италия) (51 км)
Погода в Тревизо (Италия) (53 км)
Погода в Тревизо аэропорту (Италия) (59 км)
Погода в Портороже (Словения) (62 км)
Погода в Новой Горице (Словения) (63 км)

Пояснения к столбцам:

Ветер - указаны скорость ветра в м/с - средняя за 10 мин, порывы в срок и между сроками (в фигурных скобках) и направление, откуда дует ветер: С - северный, СВ - северо-восточный, В - восточный, ЮВ - юго-восточный, Ю - южный, ЮЗ - юго-западный, З - западный, СЗ - северо-западный.
Видимость - горизонтальная дальность видимости в метрах или километрах. При видимости от 1 до 10 км при отсутствии осадков обычно наблюдается дымка, при ухудшении видимости до 1 км и менее - туман. В сухую погоду видимость может ухудшаться дымом, пылью или мглою.
Явления - указаны атмосферные явления, наблюдавшиеся в срок или в последний час перед сроком; фигурными скобками обозначены явления, наблюдавшиеся между сроками (за 1-3 часа до срока); квадратными скобками обозначены град или гололедные отложения с указанием их диаметра в мм.
Облачность - указаны через наклонную черту общая и нижняя облачность в баллах и высота нижней границы облаков в метрах; квадратными скобками обозначены формы облаков: Ci - перистые, Cs - перисто-слоистые, Cc - перисто-кучевые, Ac - высококучевые, As - высокослоистые, Sc - слоисто-кучевые, Ns - слоисто-дождевые, Cu - кучевые, Cb - кучево-дождевые. Подробнее классификацию облаков см. в Атласе облаков (PDF).
T - Температура воздуха - температура, измеренная на высоте 2 м над землей.
Td - Температура точки росы - температура, при понижении до которой содержащийся в воздухе водяной пар достигнет насыщения.
f - Относительная влажность воздуха - влажноcть воздуха, измеренная на высоте 2 м над землей.
Te - Эффективная температура - температура, которую ощущает одетый по сезону человек в тени. Характеристика душности погоды. При расчете учитывается влияние влажности воздуха и скорости ветра на теплоощущения человека.
Tes - Эффективная температура на солнце - температура, которую ощущает человек, с поправкой на солнечный нагрев. Характеристика знойности погоды. Зависит от высоты солнца над горизонтом, облачности и скорости ветра. Ночью, в пасмурную погоду, а также при ветре 12 м/с и более поправка равна нулю.
P - Атмосферное давление - приведенное к уровню моря атмосферное давление.
Po - Атмосферное давление - измеренное на уровне метеостанции атмосферное давление.
Tmin - Минимальная температура - минимум температуры воздуха на высоте 2 м над землей.
Tmax - Максимальная температура - максимум температуры воздуха на высоте 2 м над землей.
R - Количество осадков - Количество выпавших осадков за период времени, мм. При наведении курсора мыши на число - период времени, за который выпало указанное количество осадков.
R24 - Количество осадков - Количество выпавших осадков за 24 часа, мм.
S - Снежный покров - Высота снежного покрова, см. При наведении курсора мыши на число - состояние снежного покрова и степень покрытия местности в баллах.